TimeCDT,TemperatureF,Dew PointF,Humidity,Sea Level PressureIn,VisibilityMPH,Wind Direction,Wind SpeedMPH,Gust SpeedMPH,PrecipitationIn,Events,Conditions,WindDirDegrees,DateUTC
12:15 AM,66.2,51.8,60,30.13,10.0,ESE,6.9,-,N/A,,Clear,120,2013-06-21 05:15:00
12:35 AM,66.2,51.8,60,30.13,10.0,ESE,5.8,-,N/A,,Clear,120,2013-06-21 05:35:00
12:55 AM,66.2,53.6,64,30.13,10.0,ESE,8.1,-,N/A,,Clear,120,2013-06-21 05:55:00
1:15 AM,64.4,53.6,68,30.13,10.0,ESE,5.8,-,N/A,,Clear,120,2013-06-21 06:15:00
1:35 AM,64.4,53.6,68,30.12,10.0,SE,3.5,-,N/A,,Clear,130,2013-06-21 06:35:00
1:55 AM,62.6,53.6,72,30.11,10.0,ESE,3.5,-,N/A,,Clear,110,2013-06-21 06:55:00
2:15 AM,62.6,53.6,72,30.10,10.0,Calm,Calm,-,N/A,,Clear,0,2013-06-21 07:15:00
2:35 AM,64.4,55.4,73,30.10,10.0,Calm,Calm,-,N/A,,Clear,0,2013-06-21 07:35:00
2:55 AM,62.6,55.4,77,30.09,10.0,SSE,3.5,-,N/A,,Clear,160,2013-06-21 07:55:00
3:15 AM,62.6,55.4,77,30.09,10.0,SSE,3.5,-,N/A,,Clear,160,2013-06-21 08:15:00
3:35 AM,62.6,57.2,82,30.10,10.0,South,3.5,-,N/A,,Clear,170,2013-06-21 08:35:00
3:55 AM,62.6,57.2,82,30.09,10.0,South,5.8,-,N/A,,Clear,170,2013-06-21 08:55:00
4:15 AM,64.4,57.2,77,30.09,10.0,South,5.8,-,N/A,,Clear,170,2013-06-21 09:15:00
4:35 AM,64.4,57.2,77,30.08,10.0,South,5.8,-,N/A,,Clear,180,2013-06-21 09:35:00
4:55 AM,62.6,59.0,88,30.09,10.0,South,4.6,-,N/A,,Clear,180,2013-06-21 09:55:00
5:15 AM,62.6,59.0,88,30.11,10.0,South,4.6,-,N/A,,Clear,180,2013-06-21 10:15:00
5:35 AM,62.6,59.0,88,30.11,10.0,South,5.8,-,N/A,,Scattered Clouds,170,2013-06-21 10:35:00
5:45 AM,64.4,59.0,83,30.10,10.0,SSE,6.9,-,N/A,,Scattered Clouds,160,2013-06-21 10:45:00
6:45 AM,69.8,60.8,73,30.06,10.0,South,9.2,-,N/A,,Scattered Clouds,170,2013-06-21 11:45:00
7:45 AM,71.6,62.6,73,30.06,10.0,South,9.2,-,N/A,,Scattered Clouds,170,2013-06-21 12:45:00
8:45 AM,71.6,62.6,73,30.06,10.0,South,8.1,-,N/A,,Scattered Clouds,170,2013-06-21 13:45:00
9:45 AM,71.6,64.4,78,30.08,10.0,South,5.8,-,N/A,,Scattered Clouds,180,2013-06-21 14:45:00
10:10 AM,71.6,64.4,78,30.08,10.0,South,5.8,-,N/A,Rain-Thunderstorm,Light Thunderstorms and Rain,170,2013-06-21 15:10:00
10:45 AM,71.6,64.4,78,30.13,1.0,NW,24.2,35.7,N/A,Rain-Thunderstorm,Thunderstorms and Rain,310,2013-06-21 15:45:00
11:45 AM,64.4,62.6,94,30.12,7.0,East,5.8,-,N/A,,Overcast,90,2013-06-21 16:45:00
12:45 PM,64.4,64.4,100,30.06,7.0,SE,9.2,-,N/A,,Scattered Clouds,140,2013-06-21 17:45:00
1:45 PM,66.2,64.4,94,29.89,10.0,SSE,28.8,-,N/A,,Clear,160,2013-06-21 18:45:00
2:45 PM,69.8,64.4,83,29.95,10.0,SSE,17.3,-,N/A,,Clear,150,2013-06-21 19:45:00
3:45 PM,71.6,64.4,78,29.96,10.0,South,6.9,-,N/A,,Overcast,180,2013-06-21 20:45:00
4:45 PM,73.4,64.4,73,30.00,10.0,SSW,6.9,-,N/A,,Overcast,200,2013-06-21 21:45:00
5:45 PM,71.6,64.4,78,30.00,10.0,South,4.6,-,N/A,,Overcast,190,2013-06-21 22:45:00
6:45 PM,71.6,64.4,78,30.02,10.0,SSW,4.6,-,N/A,,Mostly Cloudy,200,2013-06-21 23:45:00
7:45 PM,71.6,66.2,83,30.02,10.0,South,3.5,-,N/A,,Scattered Clouds,190,2013-06-22 00:45:00
8:45 PM,69.8,64.4,83,30.06,10.0,Calm,Calm,-,N/A,,Scattered Clouds,0,2013-06-22 01:45:00
9:15 PM,69.8,64.4,83,30.07,10.0,Calm,Calm,-,N/A,Rain,Light Rain,0,2013-06-22 02:15:00
9:35 PM,69.8,64.4,83,30.06,10.0,South,3.5,-,N/A,,Mostly Cloudy,190,2013-06-22 02:35:00
9:55 PM,68.0,64.4,88,30.07,10.0,Calm,Calm,-,N/A,,Mostly Cloudy,0,2013-06-22 02:55:00
10:15 PM,68.0,64.4,88,30.06,10.0,SSE,5.8,-,N/A,,Mostly Cloudy,150,2013-06-22 03:15:00
10:35 PM,68.0,64.4,88,30.06,10.0,South,4.6,-,N/A,,Mostly Cloudy,180,2013-06-22 03:35:00
10:55 PM,68.0,64.4,88,30.05,10.0,South,5.8,-,N/A,,Overcast,180,2013-06-22 03:55:00
11:15 PM,68.0,64.4,88,30.09,10.0,West,6.9,-,N/A,Rain,Light Rain,270,2013-06-22 04:15:00
11:35 PM,68.0,64.4,88,30.06,1.5,SSW,4.6,21.9,0.56,Rain,Heavy Rain,200,2013-06-22 04:35:00
11:55 PM,68.0,64.4,88,30.06,7.0,WSW,3.5,-,0.60,Rain,Rain,240,2013-06-22 04:55:00